Time,TemperatureF,DewpointF,PressureIn,WindDirection,WindDirectionDegrees,WindSpeedMPH,WindSpeedGustMPH,Humidity,HourlyPrecipIn,Conditions,Clouds,dailyrainin,SoftwareType,DateUTC
2013-01-01 00:00:00,31.8,26.4,28.82,West,269,8.1,10.1,80,0.00,,---,0.00,VWS V13.00,2013-01-01 05:00:00,
2013-01-01 00:01:00,32.0,26.5,28.82,SW,236,10.5,10.5,80,0.00,,---,0.00,VWS V13.00,2013-01-01 05:01:00,
2013-01-01 00:02:00,32.0,26.5,28.82,WSW,248,8.7,10.5,80,0.00,,---,0.00,VWS V13.00,2013-01-01 05:02:00,
2013-01-01 00:03:00,32.0,26.5,28.82,West,263,5.4,10.5,80,0.00,,---,0.00,VWS V13.00,2013-01-01 05:03:00,
2013-01-01 00:08:00,31.8,26.4,28.82,West,267,8.1,10.5,80,0.00,,---,0.00,VWS V13.00,2013-01-01 05:08:00,
2013-01-01 00:13:00,32.0,26.5,28.82,West,274,4.9,10.5,80,0.00,,---,0.00,VWS V13.00,2013-01-01 05:13:00,
2013-01-01 00:18:00,32.0,26.5,28.82,West,262,6.7,10.5,80,0.00,,---,0.00,VWS V13.00,2013-01-01 05:18:00,
2013-01-01 00:23:00,32.0,26.2,28.79,West,263,5.4,8.7,79,0.00,,---,0.00,VWS V13.00,2013-01-01 05:23:00,
2013-01-01 00:28:00,32.0,26.5,28.79,WSW,257,4.0,8.7,80,0.00,,---,0.00,VWS V13.00,2013-01-01 05:28:00,
2013-01-01 00:34:00,31.8,26.4,28.79,WSW,237,8.3,8.7,80,0.00,,---,0.00,VWS V13.00,2013-01-01 05:34:00,
2013-01-01 00:39:00,32.2,26.7,28.79,West,272,8.7,14.1,80,0.00,,---,0.00,VWS V13.00,2013-01-01 05:39:00,
2013-01-01 00:44:00,32.2,26.7,28.82,West,267,8.3,11.4,80,0.00,,---,0.00,VWS V13.00,2013-01-01 05:44:00,
2013-01-01 00:49:00,32.0,26.8,28.82,WSW,249,5.8,11.9,81,0.00,,---,0.00,VWS V13.00,2013-01-01 05:49:00,
2013-01-01 00:54:00,32.0,27.4,28.82,West,263,10.5,11.9,83,0.00,,---,0.00,VWS V13.00,2013-01-01 05:54:00,
2013-01-01 00:59:00,32.0,27.7,28.82,WSW,243,5.8,11.9,84,0.00,,---,0.00,VWS V13.00,2013-01-01 05:59:00,
2013-01-01 01:04:00,32.0,28.3,28.82,WSW,253,11.0,11.0,86,0.00,,---,0.00,VWS V13.00,2013-01-01 06:04:00,
2013-01-01 01:09:00,32.0,28.6,28.82,WSW,252,5.4,13.2,87,0.00,,---,0.00,VWS V13.00,2013-01-01 06:09:00,
2013-01-01 01:14:00,31.8,28.7,28.82,WNW,285,5.8,13.2,88,0.00,,---,0.00,VWS V13.00,2013-01-01 06:14:00,
2013-01-01 01:19:00,31.8,29.0,28.82,WSW,249,8.7,13.2,89,0.00,,---,0.00,VWS V13.00,2013-01-01 06:19:00,
2013-01-01 01:24:00,31.8,29.2,28.82,West,268,8.7,10.5,90,0.00,,---,0.00,VWS V13.00,2013-01-01 06:24:00,
2013-01-01 01:29:00,31.8,29.8,28.82,West,260,8.7,10.5,92,0.00,,---,0.00,VWS V13.00,2013-01-01 06:29:00,
2013-01-01 01:34:00,31.8,29.8,28.82,SW,226,4.9,11.0,92,0.00,,---,0.00,VWS V13.00,2013-01-01 06:34:00,
2013-01-01 01:39:00,31.8,30.0,28.82,WNW,283,5.4,11.0,93,0.00,,---,0.00,VWS V13.00,2013-01-01 06:39:00,
2013-01-01 01:44:00,31.8,30.0,28.82,WSW,258,4.0,7.6,93,0.00,,---,0.00,VWS V13.00,2013-01-01 06:44:00,
2013-01-01 01:49:00,31.8,30.0,28.82,West,266,5.4,7.6,93,0.00,,---,0.00,VWS V13.00,2013-01-01 06:49:00,
2013-01-01 01:54:00,31.8,30.0,28.82,WSW,248,7.2,8.1,93,0.00,,---,0.00,VWS V13.00,2013-01-01 06:54:00,
2013-01-01 02:00:00,31.8,30.0,28.82,WSW,257,3.6,8.3,93,0.00,,---,0.00,VWS V13.00,2013-01-01 07:00:00,
2013-01-01 02:05:00,31.8,30.0,28.82,SW,236,5.4,10.5,93,0.00,,---,0.00,VWS V13.00,2013-01-01 07:05:00,
2013-01-01 02:10:00,31.8,29.8,28.82,WNW,282,6.3,10.5,92,0.00,,---,0.00,VWS V13.00,2013-01-01 07:10:00,
2013-01-01 02:15:00,31.8,29.8,28.82,West,273,4.0,10.5,92,0.00,,---,0.00,VWS V13.00,2013-01-01 07:15:00,
2013-01-01 02:20:00,31.8,29.8,28.82,WNW,286,5.8,5.8,92,0.00,,---,0.00,VWS V13.00,2013-01-01 07:20:00,
2013-01-01 02:25:00,31.8,29.8,28.79,West,276,4.0,8.1,92,0.00,,---,0.00,VWS V13.00,2013-01-01 07:25:00,
2013-01-01 02:30:00,31.8,29.8,28.79,WSW,246,4.0,8.3,92,0.00,,---,0.00,VWS V13.00,2013-01-01 07:30:00,
2013-01-01 02:35:00,31.8,29.8,28.79,WSW,258,4.0,8.3,92,0.00,,---,0.00,VWS V13.00,2013-01-01 07:35:00,
2013-01-01 02:40:00,31.8,29.8,28.79,West,259,4.9,5.8,92,0.00,,---,0.00,VWS V13.00,2013-01-01 07:40:00,
2013-01-01 02:46:00,31.8,29.8,28.79,West,259,6.3,6.7,92,0.00,,---,0.00,VWS V13.00,2013-01-01 07:46:00,
2013-01-01 02:51:00,31.8,29.8,28.79,WNW,283,5.4,11.0,92,0.00,,---,0.00,VWS V13.00,2013-01-01 07:51:00,
2013-01-01 02:56:00,31.8,30.0,28.82,West,269,7.6,11.0,93,0.00,,---,0.00,VWS V13.00,2013-01-01 07:56:00,
2013-01-01 03:01:00,31.8,30.0,28.82,West,271,8.1,8.1,93,0.00,,---,0.00,VWS V13.00,2013-01-01 08:01:00,
2013-01-01 03:06:00,31.8,30.3,28.82,West,263,4.9,8.1,94,0.00,,---,0.00,VWS V13.00,2013-01-01 08:06:00,
2013-01-01 03:11:00,31.8,30.5,28.79,WSW,241,4.0,8.7,95,0.00,,---,0.00,VWS V13.00,2013-01-01 08:11:00,
2013-01-01 03:16:00,31.8,30.8,28.79,West,280,5.8,8.7,96,0.00,,---,0.00,VWS V13.00,2013-01-01 08:16:00,
2013-01-01 03:21:00,31.8,30.8,28.79,WSW,245,3.1,5.4,96,0.00,,---,0.00,VWS V13.00,2013-01-01 08:21:00,
2013-01-01 03:27:00,31.8,31.1,28.79,WSW,253,6.3,8.7,97,0.00,,---,0.00,VWS V13.00,2013-01-01 08:27:00,
2013-01-01 03:32:00,31.8,31.1,28.79,WSW,243,5.8,8.7,97,0.00,,---,0.00,VWS V13.00,2013-01-01 08:32:00,
2013-01-01 03:37:00,31.8,31.1,28.79,WSW,251,2.7,8.7,97,0.00,,---,0.00,VWS V13.00,2013-01-01 08:37:00,
2013-01-01 03:42:00,31.8,31.3,28.79,WSW,248,4.0,5.8,98,0.00,,---,0.00,VWS V13.00,2013-01-01 08:42:00,
2013-01-01 03:47:00,31.8,31.3,28.79,West,275,4.0,8.1,98,0.00,,---,0.00,VWS V13.00,2013-01-01 08:47:00,
2013-01-01 03:52:00,31.8,31.3,28.79,WSW,255,5.4,8.1,98,0.00,,---,0.00,VWS V13.00,2013-01-01 08:52:00,
2013-01-01 03:57:00,31.8,31.3,28.79,WNW,282,2.7,8.1,98,0.00,,---,0.00,VWS V13.00,2013-01-01 08:57:00,
2013-01-01 04:02:00,31.8,31.3,28.79,WSW,252,4.0,5.4,98,0.00,,---,0.00,VWS V13.00,2013-01-01 09:02:00,
2013-01-01 04:08:00,31.8,31.3,28.79,WSW,251,3.6,5.4,98,0.00,,---,0.00,VWS V13.00,2013-01-01 09:08:00,
2013-01-01 04:13:00,31.8,31.3,28.79,WSW,256,4.0,6.3,98,0.00,,---,0.00,VWS V13.00,2013-01-01 09:13:00,
2013-01-01 04:18:00,31.8,31.3,28.79,WSW,248,2.7,6.3,98,0.00,,---,0.00,VWS V13.00,2013-01-01 09:18:00,
2013-01-01 04:23:00,31.8,31.3,28.79,WSW,253,5.8,5.8,98,0.00,,---,0.00,VWS V13.00,2013-01-01 09:23:00,
2013-01-01 04:28:00,31.6,31.1,28.79,WSW,255,3.1,6.3,98,0.00,,---,0.00,VWS V13.00,2013-01-01 09:28:00,
2013-01-01 04:33:00,31.6,31.1,28.79,West,264,3.6,6.3,98,0.00,,---,0.00,VWS V13.00,2013-01-01 09:33:00,
2013-01-01 04:38:00,31.6,31.1,28.79,West,273,2.7,6.3,98,0.00,,---,0.00,VWS V13.00,2013-01-01 09:38:00,
2013-01-01 04:43:00,31.6,31.1,28.79,West,261,3.6,5.4,98,0.00,,---,0.00,VWS V13.00,2013-01-01 09:43:00,
2013-01-01 04:48:00,31.5,31.0,28.79,WSW,258,5.4,5.4,98,0.00,,---,0.00,VWS V13.00,2013-01-01 09:48:00,
2013-01-01 04:53:00,31.6,31.1,28.79,WSW,237,2.2,5.4,98,0.00,,---,0.00,VWS V13.00,2013-01-01 09:53:00,
2013-01-01 04:58:00,31.6,31.1,28.79,West,268,2.2,5.8,98,0.00,,---,0.00,VWS V13.00,2013-01-01 09:58:00,
2013-01-01 05:03:00,31.6,31.1,28.79,WSW,256,2.7,3.1,98,0.00,,---,0.00,VWS V13.00,2013-01-01 10:03:00,
2013-01-01 05:08:00,31.5,31.0,28.79,WSW,256,0.0,4.5,98,0.00,,---,0.00,VWS V13.00,2013-01-01 10:08:00,
2013-01-01 05:14:00,31.5,31.0,28.79,WSW,237,2.7,4.9,98,0.00,,---,0.00,VWS V13.00,2013-01-01 10:14:00,
2013-01-01 05:19:00,31.5,31.0,28.79,West,263,2.7,4.9,98,0.00,,---,0.00,VWS V13.00,2013-01-01 10:19:00,
2013-01-01 05:24:00,31.5,31.0,28.79,West,261,5.4,5.4,98,0.00,,---,0.00,VWS V13.00,2013-01-01 10:24:00,
2013-01-01 05:29:00,31.5,31.0,28.79,West,266,2.7,5.8,98,0.00,,---,0.00,VWS V13.00,2013-01-01 10:29:00,
2013-01-01 05:34:00,31.5,31.0,28.79,West,262,5.8,5.8,98,0.00,,---,0.00,VWS V13.00,2013-01-01 10:34:00,
2013-01-01 05:39:00,31.5,31.0,28.79,WSW,253,4.9,5.8,98,0.00,,---,0.00,VWS V13.00,2013-01-01 10:39:00,
2013-01-01 05:44:00,31.5,31.0,28.79,West,267,6.3,6.3,98,0.00,,---,0.00,VWS V13.00,2013-01-01 10:44:00,
2013-01-01 05:49:00,31.5,31.0,28.79,West,281,2.7,6.3,98,0.00,,---,0.00,VWS V13.00,2013-01-01 10:49:00,
2013-01-01 05:54:00,31.5,31.0,28.79,SW,231,0.0,6.3,98,0.00,,---,0.00,VWS V13.00,2013-01-01 10:54:00,
2013-01-01 05:59:00,31.5,31.0,28.79,West,269,3.6,6.3,98,0.00,,---,0.00,VWS V13.00,2013-01-01 10:59:00,
2013-01-01 06:04:00,31.5,31.0,28.79,West,274,2.7,5.4,98,0.00,,---,0.00,VWS V13.00,2013-01-01 11:04:00,
2013-01-01 06:10:00,31.5,31.0,28.79,West,278,0.0,5.4,98,0.00,,---,0.00,VWS V13.00,2013-01-01 11:10:00,
2013-01-01 06:15:00,31.5,31.0,28.79,SW,236,2.7,5.4,98,0.00,,---,0.00,VWS V13.00,2013-01-01 11:15:00,
2013-01-01 06:20:00,31.5,31.0,28.79,West,275,2.2,5.8,98,0.00,,---,0.00,VWS V13.00,2013-01-01 11:20:00,
2013-01-01 06:25:00,31.5,31.0,28.79,West,259,5.8,5.8,98,0.00,,---,0.00,VWS V13.00,2013-01-01 11:25:00,
2013-01-01 06:30:00,31.5,31.0,28.79,West,260,3.1,5.8,98,0.00,,---,0.00,VWS V13.00,2013-01-01 11:30:00,
2013-01-01 06:35:00,31.5,31.0,28.79,West,279,3.6,5.8,98,0.00,,---,0.00,VWS V13.00,2013-01-01 11:35:00,
2013-01-01 06:40:00,31.5,31.0,28.79,West,272,4.0,4.0,98,0.00,,---,0.00,VWS V13.00,2013-01-01 11:40:00,
2013-01-01 06:45:00,31.6,30.9,28.79,West,271,3.6,5.8,97,0.00,,---,0.00,VWS V13.00,2013-01-01 11:45:00,
2013-01-01 06:50:00,31.6,30.6,28.79,West,262,4.0,5.8,96,0.00,,---,0.00,VWS V13.00,2013-01-01 11:50:00,
2013-01-01 06:55:00,31.6,30.6,28.79,West,268,3.6,5.8,96,0.00,,---,0.00,VWS V13.00,2013-01-01 11:55:00,
2013-01-01 07:00:00,31.6,30.6,28.79,WSW,257,3.1,4.5,96,0.00,,---,0.00,VWS V13.00,2013-01-01 12:00:00,
2013-01-01 07:05:00,31.6,30.6,28.79,West,259,8.1,8.1,96,0.00,,---,0.00,VWS V13.00,2013-01-01 12:05:00,
2013-01-01 07:10:00,31.6,30.9,28.79,West,278,2.7,8.1,97,0.00,,---,0.00,VWS V13.00,2013-01-01 12:10:00,
2013-01-01 07:15:00,31.6,30.9,28.79,West,270,2.2,8.1,97,0.00,,---,0.00,VWS V13.00,2013-01-01 12:15:00,
2013-01-01 07:20:00,31.5,31.0,28.79,WSW,255,4.9,5.4,98,0.00,,---,0.00,VWS V13.00,2013-01-01 12:20:00,
2013-01-01 07:25:00,31.5,31.0,28.79,WNW,289,3.6,5.4,98,0.00,,---,0.00,VWS V13.00,2013-01-01 12:25:00,
2013-01-01 07:30:00,31.5,31.0,28.79,WNW,286,6.3,6.3,98,0.00,,---,0.00,VWS V13.00,2013-01-01 12:30:00,
2013-01-01 07:36:00,31.5,31.0,28.79,West,263,3.6,6.3,98,0.00,,---,0.00,VWS V13.00,2013-01-01 12:36:00,
2013-01-01 07:41:00,31.3,30.8,28.79,West,279,4.9,6.3,98,0.00,,---,0.00,VWS V13.00,2013-01-01 12:41:00,
2013-01-01 07:46:00,31.5,31.0,28.79,WNW,287,3.6,6.3,98,0.00,,---,0.00,VWS V13.00,2013-01-01 12:46:00,
2013-01-01 07:51:00,31.5,31.0,28.79,WNW,283,3.6,6.3,98,0.00,,---,0.00,VWS V13.00,2013-01-01 12:51:00,
2013-01-01 07:56:00,31.5,31.0,28.79,WNW,297,4.0,6.3,98,0.00,,---,0.00,VWS V13.00,2013-01-01 12:56:00,
2013-01-01 08:01:00,31.3,30.8,28.79,WSW,242,4.0,6.3,98,0.00,,---,0.00,VWS V13.00,2013-01-01 13:01:00,
2013-01-01 08:06:00,31.3,30.8,28.79,West,277,2.7,6.3,98,0.00,,---,0.00,VWS V13.00,2013-01-01 13:06:00,
2013-01-01 08:11:00,31.3,30.8,28.79,WSW,255,3.1,6.3,98,0.00,,---,0.00,VWS V13.00,2013-01-01 13:11:00,
2013-01-01 08:16:00,31.3,30.8,28.79,West,271,3.1,6.3,98,0.00,,---,0.00,VWS V13.00,2013-01-01 13:16:00,
2013-01-01 08:21:00,31.3,30.8,28.79,WSW,247,2.7,4.9,98,0.00,,---,0.00,VWS V13.00,2013-01-01 13:21:00,
2013-01-01 08:26:00,31.3,30.8,28.79,WSW,256,3.1,7.6,98,0.00,,---,0.00,VWS V13.00,2013-01-01 13:26:00,
2013-01-01 08:31:00,31.3,30.8,28.79,West,266,3.1,7.6,98,0.00,,---,0.00,VWS V13.00,2013-01-01 13:31:00,
2013-01-01 08:36:00,31.3,30.8,28.79,West,274,2.7,7.6,98,0.00,,---,0.00,VWS V13.00,2013-01-01 13:36:00,
2013-01-01 08:42:00,31.3,30.8,28.82,West,276,3.6,6.3,98,0.00,,---,0.00,VWS V13.00,2013-01-01 13:42:00,
2013-01-01 08:47:00,31.1,30.6,28.82,West,274,3.6,6.3,98,0.00,,---,0.00,VWS V13.00,2013-01-01 13:47:00,
2013-01-01 08:51:00,31.1,30.6,28.82,West,279,2.2,6.3,98,0.00,,---,0.00,VWS V13.00,2013-01-01 13:51:00,
2013-01-01 08:57:00,31.1,30.4,28.82,West,261,2.7,6.3,97,0.00,,---,0.00,VWS V13.00,2013-01-01 13:57:00,
2013-01-01 09:02:00,31.1,30.4,28.82,West,272,2.2,4.0,97,0.00,,---,0.00,VWS V13.00,2013-01-01 14:02:00,
2013-01-01 09:07:00,31.3,30.3,28.82,West,266,0.0,5.4,96,0.00,,---,0.00,VWS V13.00,2013-01-01 14:07:00,
2013-01-01 09:12:00,31.3,30.3,28.79,WNW,297,3.1,5.4,96,0.00,,---,0.00,VWS V13.00,2013-01-01 14:12:00,
2013-01-01 09:17:00,31.1,29.8,28.79,WSW,254,6.3,6.3,95,0.00,,---,0.00,VWS V13.00,2013-01-01 14:17:00,
2013-01-01 09:22:00,31.3,29.8,28.79,West,267,0.0,2.7,94,0.00,,---,0.00,VWS V13.00,2013-01-01 14:22:00,
2013-01-01 09:27:00,31.3,29.8,28.82,West,268,0.0,5.4,94,0.00,,---,0.00,VWS V13.00,2013-01-01 14:27:00,
2013-01-01 09:32:00,31.3,29.5,28.82,WNW,283,2.7,5.4,93,0.00,,---,0.00,VWS V13.00,2013-01-01 14:32:00,
2013-01-01 09:37:00,31.3,29.5,28.82,West,272,3.1,5.4,93,0.00,,---,0.00,VWS V13.00,2013-01-01 14:37:00,
2013-01-01 09:42:00,31.3,29.2,28.82,West,267,3.6,4.0,92,0.00,,---,0.00,VWS V13.00,2013-01-01 14:42:00,
2013-01-01 09:47:00,31.3,29.2,28.82,West,273,2.2,4.0,92,0.00,,---,0.00,VWS V13.00,2013-01-01 14:47:00,
2013-01-01 09:52:00,31.3,29.2,28.82,West,275,3.6,6.3,92,0.00,,---,0.00,VWS V13.00,2013-01-01 14:52:00,
2013-01-01 09:57:00,31.3,29.0,28.82,West,261,0.0,7.6,91,0.00,,---,0.00,VWS V13.00,2013-01-01 14:57:00,
2013-01-01 10:03:00,31.3,29.0,28.82,West,279,3.1,4.9,91,0.00,,---,0.00,VWS V13.00,2013-01-01 15:03:00,
2013-01-01 10:08:00,31.3,28.7,28.82,West,261,3.6,5.8,90,0.00,,---,0.00,VWS V13.00,2013-01-01 15:08:00,
2013-01-01 10:13:00,31.3,28.7,28.82,West,271,2.7,5.8,90,0.00,,---,0.00,VWS V13.00,2013-01-01 15:13:00,
2013-01-01 10:18:00,31.3,28.7,28.82,West,267,5.8,5.8,90,0.00,,---,0.00,VWS V13.00,2013-01-01 15:18:00,
2013-01-01 10:23:00,31.3,28.4,28.82,WNW,285,3.1,5.8,89,0.00,,---,0.00,VWS V13.00,2013-01-01 15:23:00,
2013-01-01 10:28:00,31.3,28.4,28.82,West,265,4.0,5.8,89,0.00,,---,0.00,VWS V13.00,2013-01-01 15:28:00,
2013-01-01 10:33:00,31.3,28.4,28.82,West,274,3.6,6.3,89,0.00,,---,0.00,VWS V13.00,2013-01-01 15:33:00,
2013-01-01 10:38:00,31.3,28.4,28.82,West,276,2.7,6.3,89,0.00,,---,0.00,VWS V13.00,2013-01-01 15:38:00,
2013-01-01 10:43:00,31.5,28.6,28.82,WNW,283,3.6,6.3,89,0.00,,---,0.00,VWS V13.00,2013-01-01 15:43:00,
2013-01-01 10:48:00,31.3,28.4,28.82,WNW,288,3.6,6.3,89,0.00,,---,0.00,VWS V13.00,2013-01-01 15:48:00,
2013-01-01 10:54:00,31.3,28.1,28.82,NW,321,2.7,6.3,88,0.00,,---,0.00,VWS V13.00,2013-01-01 15:54:00,
2013-01-01 10:59:00,31.1,28.0,28.82,West,264,0.0,6.3,88,0.00,,---,0.00,VWS V13.00,2013-01-01 15:59:00,
2013-01-01 11:04:00,30.9,27.2,28.82,WNW,283,0.0,4.9,86,0.00,,---,0.00,VWS V13.00,2013-01-01 16:04:00,
2013-01-01 11:09:00,30.7,26.5,28.82,WNW,282,0.0,4.9,84,0.00,,---,0.00,VWS V13.00,2013-01-01 16:09:00,
2013-01-01 11:14:00,30.7,26.5,28.82,WNW,289,3.1,4.9,84,0.00,,---,0.00,VWS V13.00,2013-01-01 16:14:00,
2013-01-01 11:19:00,30.6,26.0,28.82,West,263,5.4,5.4,83,0.00,,---,0.00,VWS V13.00,2013-01-01 16:19:00,
2013-01-01 11:24:00,30.4,25.9,28.82,WNW,282,4.0,5.4,83,0.00,,---,0.00,VWS V13.00,2013-01-01 16:24:00,
2013-01-01 11:29:00,30.4,25.5,28.82,WNW,285,2.2,5.8,82,0.00,,---,0.00,VWS V13.00,2013-01-01 16:29:00,
2013-01-01 11:34:00,30.2,25.4,28.82,West,279,3.1,5.8,82,0.00,,---,0.00,VWS V13.00,2013-01-01 16:34:00,
2013-01-01 11:40:00,30.2,25.1,28.82,WNW,284,5.8,8.1,81,0.00,,---,0.00,VWS V13.00,2013-01-01 16:40:00,
2013-01-01 11:45:00,30.2,25.1,28.82,West,273,0.0,6.3,81,0.00,,---,0.00,VWS V13.00,2013-01-01 16:45:00,
2013-01-01 11:50:00,30.2,25.1,28.82,West,279,3.6,6.3,81,0.00,,---,0.00,VWS V13.00,2013-01-01 16:50:00,
2013-01-01 11:55:00,30.2,24.8,28.79,ESE,106,0.0,6.3,80,0.00,,---,0.00,VWS V13.00,2013-01-01 16:55:00,
2013-01-01 12:00:00,30.0,24.6,28.79,West,271,3.1,4.0,80,0.00,,---,0.00,VWS V13.00,2013-01-01 17:00:00,
2013-01-01 12:05:00,30.0,24.3,28.79,NNE,23,2.7,5.8,79,0.00,,---,0.00,VWS V13.00,2013-01-01 17:05:00,
2013-01-01 12:10:00,29.8,24.1,28.79,West,277,6.3,10.1,79,0.00,,---,0.00,VWS V13.00,2013-01-01 17:10:00,
2013-01-01 12:15:00,29.8,24.1,28.79,WNW,287,2.7,10.1,79,0.00,,---,0.00,VWS V13.00,2013-01-01 17:15:00,
2013-01-01 12:20:00,29.5,23.8,28.79,WNW,292,6.3,7.6,79,0.00,,---,0.00,VWS V13.00,2013-01-01 17:20:00,
2013-01-01 12:26:00,29.7,24.0,28.79,WNW,285,6.3,7.6,79,0.00,,---,0.00,VWS V13.00,2013-01-01 17:26:00,
2013-01-01 12:31:00,29.7,24.0,28.79,West,273,0.0,8.1,79,0.00,,---,0.00,VWS V13.00,2013-01-01 17:31:00,
2013-01-01 12:36:00,29.5,23.5,28.79,WSW,245,4.0,8.1,78,0.00,,---,0.00,VWS V13.00,2013-01-01 17:36:00,
2013-01-01 12:41:00,29.3,23.3,28.79,WNW,293,3.6,7.2,78,0.00,,---,0.00,VWS V13.00,2013-01-01 17:41:00,
2013-01-01 12:46:00,29.5,23.5,28.79,West,275,0.0,7.2,78,0.00,,---,0.00,VWS V13.00,2013-01-01 17:46:00,
2013-01-01 12:51:00,29.5,23.5,28.79,NW,307,5.4,7.2,78,0.00,,---,0.00,VWS V13.00,2013-01-01 17:51:00,
2013-01-01 12:56:00,29.5,23.5,28.79,WNW,293,0.0,8.1,78,0.00,,---,0.00,VWS V13.00,2013-01-01 17:56:00,
2013-01-01 13:01:00,29.3,23.3,28.79,WNW,303,5.8,6.3,78,0.00,,---,0.00,VWS V13.00,2013-01-01 18:01:00,
2013-01-01 13:06:00,29.1,23.1,28.79,NNE,16,7.2,7.2,78,0.00,,---,0.00,VWS V13.00,2013-01-01 18:06:00,
2013-01-01 13:11:00,29.3,23.6,28.79,NW,310,2.2,7.2,79,0.00,,---,0.00,VWS V13.00,2013-01-01 18:11:00,
2013-01-01 13:16:00,29.3,23.6,28.79,WNW,291,3.6,7.2,79,0.00,,---,0.00,VWS V13.00,2013-01-01 18:16:00,
2013-01-01 13:21:00,29.1,23.7,28.79,WNW,285,3.6,5.4,80,0.00,,---,0.00,VWS V13.00,2013-01-01 18:21:00,
2013-01-01 13:27:00,29.1,23.7,28.79,WNW,290,4.0,6.3,80,0.00,,---,0.00,VWS V13.00,2013-01-01 18:27:00,
2013-01-01 13:32:00,28.9,23.9,28.79,West,281,7.2,7.2,81,0.00,,---,0.00,VWS V13.00,2013-01-01 18:32:00,
2013-01-01 13:37:00,28.9,23.9,28.79,WNW,290,4.0,7.2,81,0.00,,---,0.00,VWS V13.00,2013-01-01 18:37:00,
2013-01-01 13:42:00,28.8,24.0,28.79,WNW,292,7.6,7.6,82,0.00,,---,0.00,VWS V13.00,2013-01-01 18:42:00,
2013-01-01 13:47:00,28.8,23.7,28.79,WNW,303,4.0,7.6,81,0.00,,---,0.00,VWS V13.00,2013-01-01 18:47:00,
2013-01-01 13:52:00,28.8,23.7,28.79,North,357,0.0,7.6,81,0.00,,---,0.00,VWS V13.00,2013-01-01 18:52:00,
2013-01-01 13:57:00,28.6,23.5,28.76,WNW,284,6.3,7.6,81,0.00,,---,0.00,VWS V13.00,2013-01-01 18:57:00,
2013-01-01 14:02:00,28.6,23.5,28.76,NW,309,2.7,4.9,81,0.00,,---,0.00,VWS V13.00,2013-01-01 19:02:00,
2013-01-01 14:07:00,28.6,23.5,28.76,WNW,287,0.0,4.9,81,0.00,,---,0.00,VWS V13.00,2013-01-01 19:07:00,
2013-01-01 14:12:00,28.6,23.8,28.79,NNE,29,0.0,4.9,82,0.00,,---,0.00,VWS V13.00,2013-01-01 19:12:00,
2013-01-01 14:18:00,28.4,23.9,28.79,NNW,328,0.0,5.8,83,0.00,,---,0.00,VWS V13.00,2013-01-01 19:18:00,
2013-01-01 14:23:00,28.2,23.7,28.79,WNW,295,5.4,6.3,83,0.00,,---,0.00,VWS V13.00,2013-01-01 19:23:00,
2013-01-01 14:28:00,28.0,23.5,28.79,East,89,2.2,8.1,83,0.00,,---,0.00,VWS V13.00,2013-01-01 19:28:00,
2013-01-01 14:33:00,27.9,23.4,28.79,WNW,287,4.0,8.1,83,0.00,,---,0.00,VWS V13.00,2013-01-01 19:33:00,
2013-01-01 14:38:00,27.9,23.4,28.79,WNW,286,5.8,8.1,83,0.00,,---,0.00,VWS V13.00,2013-01-01 19:38:00,
2013-01-01 14:43:00,27.9,23.1,28.79,SE,133,2.7,4.9,82,0.00,,---,0.00,VWS V13.00,2013-01-01 19:43:00,
2013-01-01 14:48:00,27.9,22.5,28.79,WNW,294,6.3,6.3,80,0.00,,---,0.00,VWS V13.00,2013-01-01 19:48:00,
2013-01-01 14:53:00,27.9,22.5,28.79,West,280,2.7,6.3,80,0.00,,---,0.00,VWS V13.00,2013-01-01 19:53:00,
2013-01-01 14:58:00,27.9,22.2,28.79,NE,44,0.0,6.3,79,0.00,,---,0.00,VWS V13.00,2013-01-01 19:58:00,
2013-01-01 15:03:00,27.7,22.0,28.79,WNW,288,2.2,6.3,79,0.00,,---,0.00,VWS V13.00,2013-01-01 20:03:00,
2013-01-01 15:08:00,27.7,22.0,28.79,West,275,2.7,6.3,79,0.00,,---,0.00,VWS V13.00,2013-01-01 20:08:00,
2013-01-01 15:13:00,27.7,22.0,28.79,NNE,12,2.7,6.3,79,0.00,,---,0.00,VWS V13.00,2013-01-01 20:13:00,
2013-01-01 15:18:00,27.7,22.0,28.79,North,357,0.0,6.3,79,0.00,,---,0.00,VWS V13.00,2013-01-01 20:18:00,
2013-01-01 15:23:00,27.5,21.9,28.79,West,281,0.0,6.3,79,0.00,,---,0.00,VWS V13.00,2013-01-01 20:23:00,
2013-01-01 15:29:00,27.7,22.0,28.79,North,353,0.0,6.3,79,0.00,,---,0.00,VWS V13.00,2013-01-01 20:29:00,
2013-01-01 15:34:00,27.5,21.5,28.79,WNW,282,2.7,6.3,78,0.00,,---,0.00,VWS V13.00,2013-01-01 20:34:00,
2013-01-01 15:39:00,27.3,21.1,28.79,WSW,249,2.7,6.3,77,0.00,,---,0.00,VWS V13.00,2013-01-01 20:39:00,
2013-01-01 15:44:00,27.3,21.1,28.79,WNW,303,0.0,2.7,77,0.00,,---,0.00,VWS V13.00,2013-01-01 20:44:00,
2013-01-01 15:49:00,27.1,20.6,28.79,WNW,298,2.7,3.6,76,0.00,,---,0.00,VWS V13.00,2013-01-01 20:49:00,
2013-01-01 15:54:00,27.1,20.3,28.82,SSW,213,0.0,3.6,75,0.00,,---,0.00,VWS V13.00,2013-01-01 20:54:00,
2013-01-01 15:59:00,27.1,20.3,28.82,West,279,0.0,3.6,75,0.00,,---,0.00,VWS V13.00,2013-01-01 20:59:00,
2013-01-01 16:04:00,27.0,19.5,28.82,NW,304,4.0,6.3,73,0.00,,---,0.00,VWS V13.00,2013-01-01 21:04:00,
2013-01-01 16:09:00,27.0,19.1,28.82,West,274,2.7,6.3,72,0.00,,---,0.00,VWS V13.00,2013-01-01 21:09:00,
2013-01-01 16:14:00,27.1,18.7,28.82,West,279,0.0,6.3,70,0.00,,---,0.00,VWS V13.00,2013-01-01 21:14:00,
2013-01-01 16:19:00,27.0,18.5,28.82,WNW,282,0.0,6.3,70,0.00,,---,0.00,VWS V13.00,2013-01-01 21:19:00,
2013-01-01 16:24:00,27.0,18.2,28.82,North,353,0.0,3.6,69,0.00,,---,0.00,VWS V13.00,2013-01-01 21:24:00,
2013-01-01 16:29:00,27.0,17.8,28.82,WSW,240,2.2,4.9,68,0.00,,---,0.00,VWS V13.00,2013-01-01 21:29:00,
2013-01-01 16:34:00,27.0,17.8,28.82,WNW,285,0.0,4.9,68,0.00,,---,0.00,VWS V13.00,2013-01-01 21:34:00,
2013-01-01 16:40:00,26.8,17.6,28.82,North,353,2.7,4.9,68,0.00,,---,0.00,VWS V13.00,2013-01-01 21:40:00,
2013-01-01 16:45:00,26.6,17.1,28.82,West,272,2.7,5.4,67,0.00,,---,0.00,VWS V13.00,2013-01-01 21:45:00,
2013-01-01 16:50:00,26.6,17.1,28.82,WNW,301,2.7,5.4,67,0.00,,---,0.00,VWS V13.00,2013-01-01 21:50:00,
2013-01-01 16:55:00,26.6,17.1,28.85,WSW,250,2.7,5.4,67,0.00,,---,0.00,VWS V13.00,2013-01-01 21:55:00,
2013-01-01 17:00:00,26.6,17.5,28.85,North,3,2.2,2.2,68,0.00,,---,0.00,VWS V13.00,2013-01-01 22:00:00,
2013-01-01 17:05:00,26.4,17.0,28.85,WNW,290,2.7,4.0,67,0.00,,---,0.00,VWS V13.00,2013-01-01 22:05:00,
2013-01-01 17:10:00,26.4,17.0,28.85,WNW,291,3.1,4.0,67,0.00,,---,0.00,VWS V13.00,2013-01-01 22:10:00,
2013-01-01 17:15:00,26.4,17.3,28.85,SW,217,0.0,4.0,68,0.00,,---,0.00,VWS V13.00,2013-01-01 22:15:00,
2013-01-01 17:20:00,26.1,17.0,28.85,WNW,303,3.1,3.1,68,0.00,,---,0.00,VWS V13.00,2013-01-01 22:20:00,
2013-01-01 17:25:00,26.1,17.0,28.82,NW,309,2.2,3.1,68,0.00,,---,0.00,VWS V13.00,2013-01-01 22:25:00,
2013-01-01 17:30:00,26.1,16.6,28.82,WNW,291,3.1,4.5,67,0.00,,---,0.00,VWS V13.00,2013-01-01 22:30:00,
2013-01-01 17:35:00,26.1,16.6,28.82,WNW,290,2.7,4.5,67,0.00,,---,0.00,VWS V13.00,2013-01-01 22:35:00,
2013-01-01 17:41:00,26.1,16.6,28.85,WNW,290,2.7,3.1,67,0.00,,---,0.00,VWS V13.00,2013-01-01 22:41:00,
2013-01-01 17:46:00,26.1,16.6,28.85,NNW,344,0.0,3.6,67,0.00,,---,0.00,VWS V13.00,2013-01-01 22:46:00,
2013-01-01 17:51:00,26.1,17.0,28.85,NNW,346,0.0,3.6,68,0.00,,---,0.00,VWS V13.00,2013-01-01 22:51:00,
2013-01-01 17:56:00,25.9,17.1,28.85,NNE,27,0.0,3.6,69,0.00,,---,0.00,VWS V13.00,2013-01-01 22:56:00,
2013-01-01 18:01:00,25.9,17.5,28.85,WNW,301,0.0,2.7,70,0.00,,---,0.00,VWS V13.00,2013-01-01 23:01:00,
2013-01-01 18:06:00,25.9,17.5,28.85,NE,42,0.0,2.7,70,0.00,,---,0.00,VWS V13.00,2013-01-01 23:06:00,
2013-01-01 18:11:00,25.5,17.4,28.85,WNW,288,3.1,3.1,71,0.00,,---,0.00,VWS V13.00,2013-01-01 23:11:00,
2013-01-01 18:16:00,25.5,16.8,28.85,SE,126,2.2,3.6,69,0.00,,---,0.00,VWS V13.00,2013-01-01 23:16:00,
2013-01-01 18:21:00,25.3,16.3,28.85,NNW,331,0.0,3.6,68,0.00,,---,0.00,VWS V13.00,2013-01-01 23:21:00,
2013-01-01 18:27:00,25.3,16.3,28.85,WNW,301,3.6,3.6,68,0.00,,---,0.00,VWS V13.00,2013-01-01 23:27:00,
2013-01-01 18:32:00,25.3,16.3,28.85,WSW,256,0.0,3.6,68,0.00,,---,0.00,VWS V13.00,2013-01-01 23:32:00,
2013-01-01 18:37:00,25.2,16.1,28.85,North,353,2.2,4.0,68,0.00,,---,0.00,VWS V13.00,2013-01-01 23:37:00,
2013-01-01 18:42:00,25.2,16.1,28.82,North,0,0.0,0.0,68,0.00,,---,0.00,VWS V13.00,2013-01-01 23:42:00,
2013-01-01 18:47:00,25.0,15.9,28.82,North,357,0.0,3.6,68,0.00,,---,0.00,VWS V13.00,2013-01-01 23:47:00,
2013-01-01 18:52:00,24.6,15.6,28.82,South,186,0.0,3.6,68,0.00,,---,0.00,VWS V13.00,2013-01-01 23:52:00,
2013-01-01 18:57:00,24.6,15.9,28.85,South,180,2.7,3.6,69,0.00,,---,0.00,VWS V13.00,2013-01-01 23:57:00,
2013-01-01 19:02:00,24.6,15.9,28.85,SE,145,0.0,3.1,69,0.00,,---,0.00,VWS V13.00,2013-01-02 00:02:00,
2013-01-01 19:07:00,24.4,15.4,28.85,East,87,2.2,3.1,68,0.00,,---,0.00,VWS V13.00,2013-01-02 00:07:00,
2013-01-01 19:12:00,24.3,15.2,28.85,South,184,0.0,3.1,68,0.00,,---,0.00,VWS V13.00,2013-01-02 00:12:00,
2013-01-01 19:18:00,24.3,15.2,28.85,SSW,201,0.0,3.1,68,0.00,,---,0.00,VWS V13.00,2013-01-02 00:18:00,
2013-01-01 19:23:00,24.1,15.1,28.85,SSW,201,0.0,0.0,68,0.00,,---,0.00,VWS V13.00,2013-01-02 00:23:00,
2013-01-01 19:28:00,24.1,15.1,28.85,NE,51,2.2,4.0,68,0.00,,---,0.00,VWS V13.00,2013-01-02 00:28:00,
2013-01-01 19:33:00,24.1,15.1,28.85,North,0,0.0,4.0,68,0.00,,---,0.00,VWS V13.00,2013-01-02 00:33:00,
2013-01-01 19:38:00,24.1,15.1,28.85,WNW,299,0.0,4.0,68,0.00,,---,0.00,VWS V13.00,2013-01-02 00:38:00,
2013-01-01 19:43:00,23.9,15.2,28.85,NW,313,0.0,0.0,69,0.00,,---,0.00,VWS V13.00,2013-01-02 00:43:00,
2013-01-01 19:48:00,23.7,14.4,28.85,WNW,288,2.2,4.0,67,0.00,,---,0.00,VWS V13.00,2013-01-02 00:48:00,
2013-01-01 19:53:00,23.7,14.0,28.85,NE,44,2.7,4.0,66,0.00,,---,0.00,VWS V13.00,2013-01-02 00:53:00,
2013-01-01 19:58:00,23.7,14.0,28.85,WSW,248,0.0,4.0,66,0.00,,---,0.00,VWS V13.00,2013-01-02 00:58:00,
2013-01-01 20:03:00,23.5,13.5,28.85,NW,310,0.0,3.6,65,0.00,,---,0.00,VWS V13.00,2013-01-02 01:03:00,
2013-01-01 20:08:00,23.5,13.5,28.85,West,267,0.0,3.6,65,0.00,,---,0.00,VWS V13.00,2013-01-02 01:08:00,
2013-01-01 20:13:00,23.4,13.4,28.85,WNW,297,2.7,3.6,65,0.00,,---,0.00,VWS V13.00,2013-01-02 01:13:00,
2013-01-01 20:19:00,23.4,13.0,28.85,WSW,254,0.0,4.0,64,0.00,,---,0.00,VWS V13.00,2013-01-02 01:19:00,
2013-01-01 20:24:00,23.4,13.0,28.85,NNE,12,0.0,2.7,64,0.00,,---,0.00,VWS V13.00,2013-01-02 01:24:00,
2013-01-01 20:29:00,23.4,13.0,28.85,NNW,346,0.0,2.7,64,0.00,,---,0.00,VWS V13.00,2013-01-02 01:29:00,
2013-01-01 20:34:00,23.2,12.8,28.85,WNW,290,2.2,4.0,64,0.00,,---,0.00,VWS V13.00,2013-01-02 01:34:00,
2013-01-01 20:39:00,23.2,12.8,28.85,NW,315,0.0,4.0,64,0.00,,---,0.00,VWS V13.00,2013-01-02 01:39:00,
2013-01-01 20:44:00,23.2,12.8,28.85,NW,310,0.0,3.1,64,0.00,,---,0.00,VWS V13.00,2013-01-02 01:44:00,
2013-01-01 20:49:00,23.0,12.6,28.85,NNW,329,0.0,4.5,64,0.00,,---,0.00,VWS V13.00,2013-01-02 01:49:00,
2013-01-01 20:54:00,23.0,12.3,28.85,West,281,2.2,4.9,63,0.00,,---,0.00,VWS V13.00,2013-01-02 01:54:00,
2013-01-01 20:59:00,22.8,11.4,28.85,WNW,291,3.6,4.9,61,0.00,,---,0.00,VWS V13.00,2013-01-02 01:59:00,
2013-01-01 21:04:00,22.8,10.6,28.85,WNW,295,3.1,4.5,59,0.00,,---,0.00,VWS V13.00,2013-01-02 02:04:00,
2013-01-01 21:09:00,22.8,10.6,28.85,WSW,258,0.0,4.5,59,0.00,,---,0.00,VWS V13.00,2013-01-02 02:09:00,
2013-01-01 21:15:00,22.6,10.5,28.85,South,174,2.7,5.4,59,0.00,,---,0.00,VWS V13.00,2013-01-02 02:15:00,
2013-01-01 21:20:00,22.5,10.3,28.85,NNW,328,0.0,5.4,59,0.00,,---,0.00,VWS V13.00,2013-01-02 02:20:00,
2013-01-01 21:25:00,22.5,10.3,28.85,WNW,285,3.1,3.1,59,0.00,,---,0.00,VWS V13.00,2013-01-02 02:25:00,
2013-01-01 21:30:00,22.5,10.7,28.85,WNW,301,0.0,3.1,60,0.00,,---,0.00,VWS V13.00,2013-01-02 02:30:00,
2013-01-01 21:35:00,22.5,10.7,28.85,NNE,15,0.0,3.1,60,0.00,,---,0.00,VWS V13.00,2013-01-02 02:35:00,
2013-01-01 21:40:00,22.3,10.1,28.85,SE,145,0.0,2.2,59,0.00,,---,0.00,VWS V13.00,2013-01-02 02:40:00,
2013-01-01 21:45:00,22.3,10.1,28.85,North,350,0.0,3.1,59,0.00,,---,0.00,VWS V13.00,2013-01-02 02:45:00,
2013-01-01 21:50:00,22.1,10.4,28.85,West,270,0.0,3.1,60,0.00,,---,0.00,VWS V13.00,2013-01-02 02:50:00,
2013-01-01 21:55:00,22.1,10.0,28.88,SSW,201,2.7,4.5,59,0.00,,---,0.00,VWS V13.00,2013-01-02 02:55:00,
2013-01-01 22:00:00,21.9,9.4,28.88,West,279,2.2,3.6,58,0.00,,---,0.00,VWS V13.00,2013-01-02 03:00:00,
2013-01-01 22:05:00,22.1,9.2,28.88,WNW,283,2.7,4.0,57,0.00,,---,0.00,VWS V13.00,2013-01-02 03:05:00,
2013-01-01 22:10:00,21.9,8.6,28.88,WNW,299,2.7,5.4,56,0.00,,---,0.00,VWS V13.00,2013-01-02 03:10:00,
2013-01-01 22:15:00,21.9,8.6,28.88,WNW,294,2.7,5.4,56,0.00,,---,0.00,VWS V13.00,2013-01-02 03:15:00,
2013-01-01 22:21:00,21.9,8.6,28.88,WNW,296,2.7,3.1,56,0.00,,---,0.00,VWS V13.00,2013-01-02 03:21:00,
2013-01-01 22:26:00,21.9,8.6,28.88,West,276,4.0,4.0,56,0.00,,---,0.00,VWS V13.00,2013-01-02 03:26:00,
2013-01-01 22:31:00,21.7,8.1,28.88,WNW,289,4.0,4.5,55,0.00,,---,0.00,VWS V13.00,2013-01-02 03:31:00,
2013-01-01 22:36:00,21.7,8.5,28.88,North,0,0.0,4.5,56,0.00,,---,0.00,VWS V13.00,2013-01-02 03:36:00,
2013-01-01 22:41:00,21.7,8.1,28.88,NW,316,0.0,4.0,55,0.00,,---,0.00,VWS V13.00,2013-01-02 03:41:00,
2013-01-01 22:46:00,21.6,7.9,28.88,WNW,290,3.1,4.0,55,0.00,,---,0.00,VWS V13.00,2013-01-02 03:46:00,
2013-01-01 22:51:00,21.4,7.7,28.88,WNW,293,2.7,4.0,55,0.00,,---,0.00,VWS V13.00,2013-01-02 03:51:00,
2013-01-01 22:56:00,21.4,7.7,28.88,WNW,299,3.1,6.3,55,0.00,,---,0.00,VWS V13.00,2013-01-02 03:56:00,
2013-01-01 23:01:00,21.6,8.3,28.88,East,83,2.7,4.0,56,0.00,,---,0.00,VWS V13.00,2013-01-02 04:01:00,
2013-01-01 23:06:00,21.4,7.7,28.88,WNW,287,0.0,4.0,55,0.00,,---,0.00,VWS V13.00,2013-01-02 04:06:00,
2013-01-01 23:12:00,21.2,7.6,28.88,WNW,296,3.1,4.5,55,0.00,,---,0.00,VWS V13.00,2013-01-02 04:12:00,
2013-01-01 23:17:00,21.2,7.6,28.88,WNW,289,4.0,4.5,55,0.00,,---,0.00,VWS V13.00,2013-01-02 04:17:00,
2013-01-01 23:22:00,21.2,7.6,28.88,WNW,294,0.0,4.0,55,0.00,,---,0.00,VWS V13.00,2013-01-02 04:22:00,
2013-01-01 23:27:00,21.2,7.6,28.88,North,357,0.0,4.0,55,0.00,,---,0.00,VWS V13.00,2013-01-02 04:27:00,
2013-01-01 23:32:00,21.2,7.6,28.88,North,353,0.0,4.0,55,0.00,,---,0.00,VWS V13.00,2013-01-02 04:32:00,
2013-01-01 23:37:00,21.2,7.6,28.88,WNW,290,0.0,5.8,55,0.00,,---,0.00,VWS V13.00,2013-01-02 04:37:00,
2013-01-01 23:42:00,21.2,7.6,28.88,West,280,2.7,2.7,55,0.00,,---,0.00,VWS V13.00,2013-01-02 04:42:00,
2013-01-01 23:47:00,21.0,7.4,28.88,WNW,288,2.2,3.6,55,0.00,,---,0.00,VWS V13.00,2013-01-02 04:47:00,
2013-01-01 23:52:00,21.2,7.6,28.88,WNW,284,3.1,5.4,55,0.00,,---,0.00,VWS V13.00,2013-01-02 04:52:00,
2013-01-01 23:57:00,21.2,7.6,28.88,West,275,3.1,5.4,55,0.00,,---,0.00,VWS V13.00,2013-01-02 04:57:00,